Total_Precipitation_Accumulation
0.00 0.00 0.00 0.00 0.00 0.00 0.00 0.00 0.00 0.00 0.01 0.01 0.01 0.01 0.01 0.02 0.03 0.16 0.08 0.01 0.00 0.00 0.00 0.00 0.02 0.02 0.02 0.03 0.05 0.05 0.05 0.06 0.08 0.08 0.09 0.09 0.09 0.08 0.08 0.08 0.10 0.14 0.17 0.16 0.14 0.12 0.13 0.11 0.07
0.00 0.00 0.00 0.00 0.00 0.00 0.00 0.00 0.00 0.01 0.03 0.01 0.00 0.00 0.01 0.00 0.00 0.00 0.01 0.01 0.01 0.00 0.00 0.01 0.02 0.02 0.02 0.02 0.04 0.07 0.07 0.07 0.07 0.07 0.08 0.07 0.07 0.07 0.07 0.08 0.11 0.15 0.19 0.20 0.18 0.16 0.13 0.10 0.06
0.00 0.00 0.00 0.00 0.00 0.00 0.00 0.01 0.01 0.01 0.01 0.01 0.00 0.01 0.01 0.00 0.00 0.00 0.01 0.00 0.00 0.00 0.00 0.01 0.01 0.02 0.03 0.02 0.03 0.06 0.07 0.07 0.06 0.07 0.07 0.07 0.07 0.06 0.07 0.08 0.09 0.11 0.14 0.14 0.10 0.09 0.09 0.09 0.05
0.00 0.00 0.00 0.00 0.00 0.00 0.00 0.01 0.02 0.01 0.01 0.01 0.01 0.02 0.02 0.01 0.00 0.00 0.01 0.01 0.00 0.00 0.00 0.00 0.01 0.03 0.04 0.04 0.05 0.06 0.06 0.07 0.07 0.08 0.10 0.09 0.09 0.07 0.09 0.11 0.12 0.11 0.12 0.11 0.08 0.08 0.07 0.08 0.04
0.00 0.00 0.00 0.00 0.00 0.00 0.00 0.01 0.03 0.02 0.01 0.01 0.01 0.02 0.02 0.01 0.00 0.00 0.00 0.01 0.01 0.01 0.01 0.00 0.01 0.04 0.06 0.07 0.09 0.11 0.12 0.11 0.11 0.12 0.13 0.12 0.11 0.10 0.11 0.12 0.13 0.13 0.13 0.12 0.10 0.12 0.11 0.07 0.02
0.00 0.00 0.00 0.00 0.00 0.00 0.00 0.01 0.03 0.04 0.02 0.02 0.03 0.04 0.04 0.02 0.01 0.00 0.01 0.02 0.02 0.02 0.01 0.00 0.01 0.03 0.08 0.12 0.15 0.17 0.14 0.12 0.11 0.12 0.15 0.12 0.09 0.07 0.07 0.08 0.09 0.11 0.14 0.15 0.10 0.06 0.05 0.02 0.01
0.00 0.00 0.00 0.00 0.00 0.00 0.00 0.00 0.02 0.03 0.03 0.03 0.04 0.06 0.05 0.02 0.01 0.00 0.01 0.01 0.01 0.01 0.01 0.00 0.00 0.03 0.09 0.15 0.15 0.14 0.11 0.10 0.10 0.13 0.16 0.14 0.09 0.06 0.06 0.08 0.10 0.10 0.10 0.08 0.03 0.01 0.01 0.00 0.00
0.00 0.00 0.00 0.00 0.00 0.00 0.01 0.01 0.02 0.04 0.06 0.04 0.04 0.08 0.06 0.02 0.01 0.00 0.01 0.01 0.01 0.00 0.00 0.00 0.02 0.05 0.09 0.10 0.09 0.09 0.07 0.06 0.07 0.11 0.12 0.10 0.07 0.06 0.06 0.06 0.06 0.06 0.08 0.07 0.04 0.01 0.01 0.00 0.00
0.00 0.00 0.00 0.00 0.00 0.00 0.01 0.02 0.02 0.02 0.03 0.04 0.05 0.08 0.08 0.03 0.02 0.01 0.01 0.01 0.00 0.00 0.00 0.00 0.00 0.02 0.04 0.04 0.02 0.02 0.03 0.02 0.02 0.04 0.05 0.05 0.08 0.12 0.12 0.07 0.06 0.09 0.10 0.07 0.02 0.01 0.00 0.00 0.00
0.00 0.00 0.00 0.00 0.00 0.00 0.01 0.02 0.03 0.02 0.02 0.03 0.07 0.08 0.08 0.03 0.02 0.02 0.01 0.01 0.01 0.00 0.00 0.00 0.00 0.00 0.03 0.03 0.02 0.02 0.02 0.03 0.03 0.05 0.03 0.05 0.16 0.24 0.19 0.15 0.11 0.10 0.07 0.03 0.01 0.01 0.00 0.00 0.00
0.00 0.00 0.00 0.00 0.00 0.00 0.00 0.01 0.02 0.02 0.02 0.02 0.07 0.16 0.12 0.04 0.03 0.04 0.03 0.03 0.02 0.01 0.00 0.01 0.01 0.02 0.12 0.13 0.03 0.04 0.03 0.04 0.03 0.05 0.05 0.11 0.18 0.15 0.14 0.16 0.11 0.07 0.04 0.03 0.03 0.02 0.01 0.01 0.01
0.00 0.00 0.00 0.00 0.00 0.00 0.00 0.00 0.01 0.01 0.01 0.02 0.06 0.15 0.20 0.09 0.05 0.07 0.07 0.06 0.03 0.01 0.00 0.01 0.01 0.03 0.08 0.11 0.03 0.03 0.02 0.03 0.04 0.05 0.05 0.12 0.17 0.17 0.19 0.28 0.20 0.14 0.11 0.08 0.05 0.04 0.04 0.03 0.02
0.00 0.00 0.00 0.00 0.00 0.00 0.00 0.00 0.00 0.00 0.01 0.02 0.04 0.09 0.17 0.10 0.06 0.10 0.14 0.11 0.05 0.02 0.01 0.00 0.00 0.02 0.02 0.01 0.02 0.02 0.01 0.01 0.02 0.04 0.06 0.10 0.14 0.17 0.22 0.28 0.32 0.20 0.18 0.15 0.12 0.10 0.09 0.07 0.03
0.00 0.00 0.00 0.00 0.00 0.00 0.00 0.00 0.00 0.00 0.01 0.01 0.03 0.07 0.12 0.10 0.11 0.15 0.20 0.13 0.06 0.03 0.02 0.01 0.00 0.00 0.01 0.01 0.01 0.01 0.01 0.02 0.02 0.05 0.06 0.06 0.12 0.26 0.33 0.30 0.26 0.16 0.13 0.16 0.22 0.22 0.13 0.08 0.06
0.00 0.00 0.00 0.00 0.00 0.00 0.00 0.00 0.00 0.00 0.00 0.01 0.03 0.05 0.09 0.13 0.13 0.17 0.24 0.13 0.08 0.04 0.02 0.02 0.01 0.01 0.00 0.00 0.01 0.02 0.04 0.05 0.05 0.07 0.08 0.08 0.11 0.20 0.25 0.28 0.24 0.18 0.13 0.12 0.13 0.17 0.19 0.15 0.13
0.00 0.00 0.00 0.00 0.00 0.00 0.00 0.00 0.00 0.00 0.00 0.00 0.01 0.04 0.05 0.11 0.15 0.15 0.17 0.14 0.10 0.06 0.03 0.03 0.02 0.01 0.01 0.01 0.03 0.06 0.08 0.08 0.08 0.10 0.13 0.15 0.16 0.20 0.23 0.25 0.24 0.22 0.20 0.20 0.20 0.19 0.22 0.25 0.20
0.00 0.00 0.00 0.00 0.00 0.00 0.00 0.00 0.00 0.00 0.00 0.00 0.00 0.01 0.03 0.07 0.12 0.14 0.21 0.24 0.16 0.09 0.06 0.05 0.03 0.02 0.02 0.04 0.06 0.09 0.12 0.14 0.16 0.19 0.22 0.27 0.29 0.31 0.32 0.33 0.33 0.32 0.34 0.33 0.30 0.30 0.29 0.28 0.25
0.00 0.00 0.00 0.00 0.00 0.00 0.00 0.00 0.00 0.00 0.00 0.00 0.00 0.01 0.03 0.05 0.10 0.15 0.18 0.26 0.27 0.16 0.10 0.07 0.04 0.05 0.06 0.08 0.10 0.12 0.17 0.23 0.29 0.35 0.44 0.54 0.57 0.54 0.51 0.52 0.50 0.49 0.44 0.40 0.37 0.33 0.30 0.25 0.21
0.00 0.00 0.00 0.00 0.00 0.00 0.00 0.00 0.00 0.00 0.00 0.00 0.00 0.01 0.04 0.08 0.13 0.19 0.20 0.25 0.30 0.20 0.12 0.09 0.08 0.11 0.16 0.22 0.22 0.29 0.46 0.59 0.72 0.88 1.03 1.05 0.98 0.89 0.82 0.73 0.67 0.60 0.49 0.41 0.35 0.30 0.26 0.22 0.16
0.00 0.00 0.00 0.00 0.00 0.00 0.00 0.00 0.00 0.00 0.00 0.00 0.00 0.00 0.02 0.07 0.16 0.27 0.29 0.31 0.31 0.22 0.17 0.18 0.19 0.29 0.42 0.61 0.78 0.98 1.20 1.28 1.41 1.51 1.54 1.45 1.33 1.23 1.14 1.06 0.94 0.76 0.61 0.50 0.40 0.32 0.26 0.21 0.16
0.00 0.00 0.00 0.00 0.00 0.00 0.00 0.00 0.00 0.00 0.00 0.00 0.00 0.00 0.01 0.05 0.12 0.19 0.21 0.27 0.28 0.28 0.29 0.29 0.41 0.69 0.98 1.16 1.31 1.59 1.84 1.87 1.91 1.91 1.82 1.67 1.55 1.43 1.31 1.23 1.10 0.93 0.76 0.63 0.49 0.38 0.29 0.21 0.13
0.00 0.00 0.00 0.00 0.00 0.00 0.00 0.00 0.00 0.00 0.00 0.00 0.00 0.00 0.00 0.02 0.05 0.08 0.13 0.20 0.25 0.35 0.41 0.48 0.73 1.21 1.54 1.67 1.93 2.21 2.40 2.52 2.52 2.31 2.01 1.71 1.48 1.30 1.13 1.01 0.88 0.77 0.63 0.49 0.35 0.25 0.18 0.11 0.06
0.00 0.00 0.00 0.00 0.00 0.00 0.00 0.00 0.00 0.00 0.00 0.00 0.00 0.00 0.01 0.01 0.03 0.04 0.09 0.19 0.26 0.40 0.53 0.68 0.97 1.34 1.69 2.05 2.42 2.55 2.63 2.62 2.43 2.07 1.66 1.39 1.20 1.03 0.89 0.75 0.60 0.46 0.33 0.23 0.17 0.13 0.10 0.08 0.05
0.00 0.00 0.00 0.00 0.00 0.00 0.00 0.00 0.00 0.00 0.00 0.00 0.01 0.01 0.01 0.02 0.03 0.06 0.14 0.24 0.37 0.51 0.62 0.76 0.96 1.23 1.60 1.92 2.13 2.10 2.12 2.01 1.75 1.52 1.37 1.18 0.95 0.74 0.55 0.39 0.27 0.18 0.13 0.10 0.08 0.07 0.05 0.03 0.02
0.00 0.00 0.00 0.00 0.00 0.00 0.00 0.00 0.00 0.01 0.01 0.01 0.01 0.02 0.02 0.03 0.05 0.10 0.20 0.28 0.43 0.51 0.61 0.77 0.94 1.14 1.34 1.54 1.73 1.76 1.67 1.52 1.32 1.14 0.94 0.73 0.55 0.39 0.24 0.15 0.10 0.07 0.05 0.04 0.03 0.03 0.02 0.01 0.01
0.00 0.00 0.00 0.00 0.00 0.00 0.00 0.00 0.02 0.02 0.02 0.02 0.02 0.03 0.04 0.06 0.10 0.18 0.25 0.34 0.47 0.57 0.65 0.79 0.93 1.08 1.14 1.16 1.19 1.15 1.07 0.97 0.84 0.66 0.48 0.36 0.25 0.17 0.11 0.07 0.05 0.03 0.02 0.02 0.02 0.01 0.01 0.01 0.01
0.00 0.00 0.00 0.00 0.00 0.00 0.00 0.05 0.06 0.04 0.04 0.03 0.03 0.04 0.07 0.12 0.17 0.22 0.30 0.39 0.50 0.59 0.68 0.77 0.84 0.90 0.90 0.85 0.78 0.69 0.64 0.56 0.47 0.37 0.27 0.19 0.11 0.06 0.04 0.02 0.01 0.01 0.01 0.01 0.01 0.01 0.01 0.01 0.01
0.00 0.00 0.00 0.00 0.00 0.00 0.01 0.06 0.09 0.08 0.08 0.07 0.07 0.09 0.13 0.18 0.22 0.27 0.32 0.38 0.41 0.40 0.46 0.49 0.52 0.56 0.56 0.53 0.50 0.46 0.39 0.30 0.22 0.16 0.11 0.07 0.04 0.02 0.02 0.01 0.01 0.01 0.01 0.01 0.01 0.01 0.01 0.01 0.01
0.00 0.00 0.00 0.00 0.00 0.00 0.01 0.08 0.14 0.20 0.20 0.15 0.13 0.14 0.17 0.21 0.24 0.27 0.30 0.32 0.34 0.35 0.39 0.41 0.41 0.42 0.38 0.34 0.29 0.22 0.16 0.12 0.09 0.07 0.05 0.04 0.03 0.02 0.01 0.01 0.00 0.00 0.00 0.00 0.00 0.01 0.01 0.01 0.01
0.00 0.00 0.00 0.00 0.00 0.00 0.02 0.15 0.23 0.33 0.37 0.28 0.21 0.21 0.24 0.25 0.27 0.26 0.25 0.23 0.23 0.23 0.23 0.25 0.25 0.23 0.21 0.17 0.12 0.10 0.09 0.07 0.05 0.04 0.02 0.01 0.01 0.00 0.00 0.00 0.00 0.00 0.00 0.00 0.00 0.01 0.01 0.02 0.02